This demonstration page uses our WeatherBlox Daily Observations layout. Learn more.

Left ArrowRight Arrow

Hourly Observations for April 26, 2021

Temp ( °F °C ) Dew Point ( °F °C ) Humidity (%) Winds ( mph kmh ) Pressure ( in mb ) Visibility ( mi km ) Precip ( " mm )
12:53 am 00:53 Clear 43 6.1 40 4.4 89 89 Calm 29.85 1011 10 16 0.00 0.00
1:53 am 01:53 Clear 40 4.4 38 3.3 93 93 Calm 29.85 1011 10 16 0.00 0.00
2:53 am 02:53 Clear 39 3.9 38 3.3 96 96 WNW 5 7 29.85 1011 10 16 0.00 0.00
3:53 am 03:53 Clear 38 3.3 36 2.2 93 93 Calm 29.86 1011 10 16 0.00 0.00
4:48 am 04:48 Mostly Clear with Mist and Fog 37 3 36 2 93 93 Calm 29.89 1012 3 5 0.00 0.00
4:53 am 04:53 Mostly Clear with Mist and Fog 37 2.8 35 1.7 93 93 Calm 29.87 1011 3 4 0.00 0.00
5:02 am 05:02 Partly Cloudy 37 2.8 36 2.2 96 96 Calm 29.89 1012 10 16 0.00 0.00
5:19 am 05:19 Mostly Cloudy with Mist and Fog 37 2.8 36 2.2 96 96 N 3 6 29.90 1013 2 3 0.00 0.00
5:22 am 05:22 Mostly Cloudy with Mist and Fog 37 2.8 36 2.2 96 96 Calm 29.90 1013 1 2 0.00 0.00
5:31 am 05:31 Mostly Cloudy with Mist and Fog 37 2.8 36 2.2 96 96 Calm 29.89 1012 1 1 0.00 0.00
5:37 am 05:37 Cloudy with Mist and Fog 36 2.2 35 1.7 97 97 Calm 29.90 1013 2 2 0.00 0.00
5:44 am 05:44 Cloudy with Mist and Fog 36 2.2 35 1.7 97 97 Calm 29.89 1012 3 5 0.00 0.00
5:53 am 05:53 Cloudy 36 2.2 34 1.1 93 93 Calm 29.88 1012 10 16 0.00 0.00
6:11 am 06:11 Mostly Cloudy with Mist and Fog 36 2.2 35 1.7 97 97 Calm 29.90 1013 3 4 0.00 0.00
6:18 am 06:18 Partly Cloudy 36 2.2 35 1.7 97 97 Calm 29.90 1013 10 16 0.00 0.00
6:53 am 06:53 Sunny 38 3.3 36 2.2 93 93 Calm 29.89 1012 10 16 0.00 0.00
7:53 am 07:53 Sunny 41 5 39 3.9 93 93 Calm 29.91 1013 10 16 0.00 0.00
8:53 am 08:53 Sunny 48 8.9 42 5.6 80 80 Calm 29.92 1013 10 16 0.00 0.00
9:53 am 09:53 Sunny 52 11.1 40 4.4 64 64 ENE 3 6 29.93 1014 10 16 0.00 0.00
10:53 am 10:53 Sunny 54 12.2 38 3.3 55 55 Calm 29.93 1014 10 16 0.00 0.00
11:53 am 11:53 Sunny 58 14.4 38 3.3 48 48 SW 5 7 29.92 1013 10 16 0.00 0.00
12:53 pm 12:53 Mostly Sunny 60 15.6 37 2.8 42 42 undefined N/A 29.90 1012 10 16 0.00 0.00
1:53 pm 13:53 Sunny 61 16.1 34 1.1 36 36 SW 7 11 29.88 1012 10 16 0.00 0.00
2:53 pm 14:53 Sunny 63 17.2 33 0.6 33 33 VRB 5 7 29.87 1012 10 16 0.00 0.00
3:53 pm 15:53 Sunny 64 17.8 34 1.1 33 33 VRB 7 11 29.85 1011 10 16 0.00 0.00
4:53 pm 16:53 Sunny 66 18.9 33 0.6 29 29 VRB 7 11 29.85 1011 10 16 0.00 0.00
5:53 pm 17:53 Mostly Sunny 66 18.9 33 0.6 29 29 VRB 3 6 29.85 1011 10 16 0.00 0.00
6:53 pm 18:53 Sunny 62 16.7 33 0.6 34 34 N 5 7 29.85 1011 10 16 0.00 0.00
7:53 pm 19:53 Sunny 57 13.9 40 4.4 53 53 NW 3 6 29.86 1011 10 16 0.00 0.00
8:53 pm 20:53 Mostly Clear 56 13.3 40 4.4 55 55 NNW 5 7 29.88 1012 10 16 0.00 0.00
9:53 pm 21:53 Clear 51 10.6 41 5 69 69 NNW 3 6 29.90 1013 10 16 0.00 0.00
10:53 pm 22:53 Clear 51 10.6 41 5 69 69 NNW 5 7 29.91 1013 10 16 0.00 0.00
11:53 pm 23:53 Clear 50 10 41 5 71 71 NNW 5 7 29.93 1014 10 16 0.00 0.00

Powered by AerisWeather